When you browse on this site, cookies collect data to enhance your experience and personalize the content and advertising you see.
Visit our Privacy Policy to learn more. By continuing to use the site, you agree to this use of cookies and data.
  • In Austria
  • List of Countries
  • For 7 days
  • Water Temperature
  • Weather Map
  • News
  • Weather Widgets
  • user-avatar
    Login

    Hourly Weather Jaltocan

    Today, 18 January, Saturday

    Time Temperature Precipitation Wind Pressure Humidity
    00:00 +20°C° 0 mm 0 mps 748 mmHg 95%
    01:00 +20°C° 0 mm 0 mps 748 mmHg 95%
    02:00 +20°C° 0 mm 0 mps 748 mmHg 96%
    03:00 +20°C° 0 mm 0 mps 748 mmHg 96%
    04:00 +19°C° 0 mm 0 mps 748 mmHg 96%
    05:00 +19°C° 0 mm 0 mps 748 mmHg 96%
    06:00 +20°C° 0 mm 0 mps 748 mmHg 93%
    07:00 +21°C° 0 mm 0 mps 749 mmHg 90%
    08:00 +22°C° 0 mm 0 mps 749 mmHg 87%
    09:00 +25°C° 0 mm 1 mps 749 mmHg 83%
    10:00 +26°C° 0 mm 1 mps 749 mmHg 78%
    11:00 +27°C° 0 mm 1 mps 748 mmHg 74%
    12:00 +27°C° 0 mm 2 mps 748 mmHg 72%
    13:00 +28°C° 0 mm 2 mps 747 mmHg 69%
    14:00 +28°C° 0 mm 2 mps 746 mmHg 67%
    15:00 +27°C° 0 mm 1 mps 746 mmHg 72%
    16:00 +26°C° 0 mm 1 mps 747 mmHg 78%
    17:00 +25°C° 0 mm 1 mps 747 mmHg 83%
    18:00 +24°C° 0.1 mm 1 mps 748 mmHg 86%
    19:00 +22°C° 0.1 mm 0 mps 748 mmHg 89%
    20:00 +21°C° 0.1 mm 0 mps 749 mmHg 91%
    21:00 +21°C° 0.9 mm 0 mps 749 mmHg 92%
    22:00 +23°C° 0.9 mm 1 mps 749 mmHg 93%
    23:00 +22°C° 0.9 mm 1 mps 749 mmHg 94%

    Tomorrow, 19 January, Sunday

    Time Temperature Precipitation Wind Pressure Humidity
    00:00 +22°C° 1 mm 1 mps 749 mmHg 95%
    01:00 +22°C° 1 mm 1 mps 749 mmHg 95%
    02:00 +22°C° 1 mm 1 mps 749 mmHg 96%
    03:00 +22°C° 1.9 mm 1 mps 749 mmHg 96%
    04:00 +22°C° 1.9 mm 1 mps 749 mmHg 96%
    05:00 +22°C° 1.9 mm 1 mps 749 mmHg 97%
    06:00 +21°C° 1.5 mm 1 mps 750 mmHg 96%
    07:00 +21°C° 1.5 mm 1 mps 750 mmHg 96%
    08:00 +21°C° 1.5 mm 1 mps 751 mmHg 96%
    09:00 +20°C° 1.2 mm 2 mps 751 mmHg 96%
    10:00 +19°C° 1.2 mm 2 mps 751 mmHg 95%
    11:00 +19°C° 1.2 mm 2 mps 751 mmHg 95%
    12:00 +19°C° 0.8 mm 2 mps 751 mmHg 95%
    13:00 +18°C° 0.8 mm 2 mps 751 mmHg 95%
    14:00 +19°C° 0.8 mm 1 mps 751 mmHg 95%
    15:00 +19°C° 0.7 mm 1 mps 751 mmHg 95%
    16:00 +19°C° 0.7 mm 1 mps 751 mmHg 95%
    17:00 +16°C° 0.7 mm 0 mps 751 mmHg 95%
    18:00 +18°C° 0.2 mm 1 mps 752 mmHg 95%
    19:00 +18°C° 0.2 mm 1 mps 752 mmHg 95%
    20:00 +18°C° 0.2 mm 1 mps 753 mmHg 94%
    21:00 +18°C° 0.1 mm 1 mps 753 mmHg 94%
    22:00 +18°C° 0.1 mm 1 mps 753 mmHg 94%
    23:00 +18°C° 0.1 mm 1 mps 753 mmHg 93%

    Day after tomorrow, 20 January, Monday

    Time Temperature Precipitation Wind Pressure Humidity
    00:00 +18°C° 0.1 mm 1 mps 753 mmHg 93%
    01:00 +18°C° 0.1 mm 1 mps 752 mmHg 93%
    02:00 +18°C° 0.1 mm 1 mps 752 mmHg 93%
    03:00 +16°C° 0.1 mm 1 mps 752 mmHg 92%
    04:00 +16°C° 0.1 mm 1 mps 752 mmHg 92%
    05:00 +16°C° 0.1 mm 1 mps 752 mmHg 91%
    06:00 +16°C° 0.2 mm 1 mps 753 mmHg 91%
    07:00 +16°C° 0.2 mm 1 mps 753 mmHg 91%
    08:00 +16°C° 0.2 mm 1 mps 754 mmHg 91%
    09:00 +16°C° 0.2 mm 1 mps 754 mmHg 91%
    10:00 +16°C° 0.2 mm 1 mps 754 mmHg 91%
    11:00 +16°C° 0.2 mm 1 mps 753 mmHg 92%
    12:00 +16°C° 0.1 mm 1 mps 753 mmHg 91%
    13:00 +16°C° 0.1 mm 1 mps 752 mmHg 91%
    14:00 +16°C° 0.1 mm 1 mps 751 mmHg 91%
    15:00 +16°C° 0.1 mm 1 mps 752 mmHg 92%
    16:00 +16°C° 0.1 mm 1 mps 752 mmHg 92%
    17:00 +16°C° 0.1 mm 1 mps 752 mmHg 93%
    18:00 +16°C° 0.3 mm 1 mps 752 mmHg 94%
    19:00 +16°C° 0.3 mm 1 mps 752 mmHg 94%
    20:00 +16°C° 0.3 mm 1 mps 753 mmHg 95%
    21:00 +16°C° 0.3 mm 1 mps 753 mmHg 95%
    22:00 +16°C° 0.3 mm 1 mps 753 mmHg 96%
    23:00 +16°C° 0.3 mm 1 mps 753 mmHg 97%

    21 January, Tuesday

    Time Temperature Precipitation Wind Pressure Humidity
    00:00 +15°C° 0.2 mm 0 mps 752 mmHg 96%
    01:00 +15°C° 0.2 mm 0 mps 752 mmHg 96%
    02:00 +15°C° 0.2 mm 0 mps 751 mmHg 96%
    03:00 +15°C° 0 mm 0 mps 751 mmHg 96%
    04:00 +15°C° 0 mm 0 mps 750 mmHg 96%
    05:00 +15°C° 0 mm 0 mps 750 mmHg 96%
    06:00 +15°C° 0 mm 0 mps 750 mmHg 96%
    07:00 +15°C° 0 mm 0 mps 751 mmHg 95%
    08:00 +18°C° 0 mm 1 mps 751 mmHg 95%
    09:00 +18°C° 0 mm 1 mps 751 mmHg 94%
    10:00 +18°C° 0 mm 1 mps 750 mmHg 94%
    11:00 +18°C° 0 mm 1 mps 750 mmHg 93%
    12:00 +19°C° 0 mm 1 mps 749 mmHg 92%
    13:00 +17°C° 0 mm 0 mps 748 mmHg 92%
    14:00 +17°C° 0 mm 0 mps 747 mmHg 91%
    15:00 +17°C° 0 mm 0 mps 747 mmHg 93%
    16:00 +17°C° 0 mm 0 mps 747 mmHg 94%
    17:00 +16°C° 0 mm 0 mps 747 mmHg 95%
    18:00 +16°C° 0 mm 0 mps 747 mmHg 95%
    19:00 +16°C° 0 mm 0 mps 747 mmHg 96%
    20:00 +16°C° 0 mm 0 mps 748 mmHg 96%
    21:00 +16°C° 0 mm 0 mps 748 mmHg 96%
    22:00 +16°C° 0 mm 0 mps 747 mmHg 96%
    23:00 +16°C° 0 mm 0 mps 747 mmHg 96%

    22 January, Wednesday

    Time Temperature Precipitation Wind Pressure Humidity
    00:00 +16°C° 0 mm 0 mps 747 mmHg 96%
    01:00 +16°C° 0 mm 0 mps 746 mmHg 96%
    02:00 +16°C° 0 mm 0 mps 746 mmHg 97%
    03:00 +16°C° 0.1 mm 0 mps 745 mmHg 96%
    04:00 +16°C° 0.1 mm 0 mps 745 mmHg 95%
    05:00 +18°C° 0.1 mm 1 mps 745 mmHg 94%
    06:00 +17°C° 0 mm 0 mps 745 mmHg 91%
    07:00 +18°C° 0 mm 0 mps 746 mmHg 88%
    08:00 +19°C° 0 mm 0 mps 746 mmHg 84%
    09:00 +22°C° 0 mm 1 mps 745 mmHg 81%
    10:00 +23°C° 0 mm 1 mps 745 mmHg 77%
    11:00 +25°C° 0 mm 1 mps 745 mmHg 73%
    12:00 +25°C° 0 mm 1 mps 744 mmHg 74%
    13:00 +25°C° 0 mm 1 mps 743 mmHg 74%
    14:00 +25°C° 0 mm 1 mps 742 mmHg 75%
    15:00 +24°C° 0 mm 1 mps 742 mmHg 80%
    16:00 +24°C° 0 mm 1 mps 742 mmHg 84%
    17:00 +21°C° 0 mm 0 mps 742 mmHg 89%
    18:00 +20°C° 0 mm 0 mps 742 mmHg 91%
    19:00 +20°C° 0 mm 0 mps 743 mmHg 93%
    20:00 +19°C° 0 mm 0 mps 743 mmHg 94%
    21:00 +19°C° 0 mm 0 mps 743 mmHg 95%
    22:00 +19°C° 0 mm 0 mps 744 mmHg 95%
    23:00 +19°C° 0 mm 0 mps 744 mmHg 95%

    23 January, Thursday

    Time Temperature Precipitation Wind Pressure Humidity
    00:00 +21°C° 0 mm 1 mps 743 mmHg 94%
    01:00 +21°C° 0 mm 1 mps 743 mmHg 94%
    02:00 +21°C° 0 mm 1 mps 742 mmHg 93%
    03:00 +21°C° 0 mm 1 mps 742 mmHg 92%
    04:00 +21°C° 0 mm 1 mps 742 mmHg 90%
    05:00 +21°C° 0 mm 1 mps 742 mmHg 89%
    06:00 +22°C° 0 mm 1 mps 742 mmHg 87%
    07:00 +23°C° 0 mm 1 mps 743 mmHg 85%
    08:00 +21°C° 0 mm 0 mps 743 mmHg 83%
    09:00 +25°C° 0 mm 1 mps 743 mmHg 77%
    10:00 +27°C° 0 mm 1 mps 742 mmHg 71%
    11:00 +28°C° 0 mm 1 mps 742 mmHg 66%
    12:00 +29°C° 0 mm 1 mps 741 mmHg 65%
    13:00 +29°C° 0 mm 2 mps 740 mmHg 64%
    14:00 +29°C° 0 mm 2 mps 739 mmHg 64%
    15:00 +28°C° 0 mm 2 mps 739 mmHg 70%
    16:00 +27°C° 0 mm 2 mps 740 mmHg 76%
    17:00 +26°C° 0 mm 2 mps 740 mmHg 82%
    18:00 +25°C° 0 mm 2 mps 740 mmHg 85%
    19:00 +23°C° 0 mm 2 mps 741 mmHg 88%
    20:00 +22°C° 0 mm 1 mps 742 mmHg 91%
    21:00 +22°C° 0 mm 1 mps 742 mmHg 90%
    22:00 +22°C° 0 mm 1 mps 742 mmHg 90%
    23:00 +21°C° 0 mm 1 mps 742 mmHg 90%
    Show more